Location: Apollinopolis Magna
(24.9792°N, 32.8772°E)
Time: 19:50:36
(UTC+00:00)

YAOGAN 1 - Pass Details

Date: 02 March 2021
Orbit: 618 x 620 km, 97.9° (Epoch: 09 April)

Event Time Altitude Azimuth Distance (km) Brightness Sun altitude
Rises 17:13:36 0° 185° (S) 2,880 6.0 -19.4°
Reaches altitude 10° 17:15:54 10° 193° (SSW) 1,977 5.3 -20.0°
Maximum altitude 17:19:52 36° 261° (W) 974 4.1 -20.9°
Drops below altitude 10° 17:23:52 10° 328° (NNW) 1,986 5.6 -21.8°
Sets 17:26:12 0° 337° (NNW) 2,894 6.3 -22.3°
